AirNav   Bose Proflight Series 2 Wireless Aviation Headset
 
 979 users online  

H96 Benton Municipal Airport
Benton, Illinois, USA

GOING TO BENTON?


FAA INFORMATION EFFECTIVE 07 NOVEMBER 2019

Location

FAA Identifier: H96
Lat/Long: 38-00-30.6000N 088-56-04.0000W
38-00.510000N 088-56.066667W
38.0085000,-88.9344444
(estimated)
Elevation: 444.1 ft. / 135.4 m (surveyed)
Variation: 02W (2010)
From city: 1 mile W of BENTON, IL
Time zone: UTC -6 (UTC -5 during Daylight Saving Time)
Zip code: 62812

Airport Operations

Airport use: Open to the public
Activation date: 04/1947
Control tower: no
ARTCC: KANSAS CITY CENTER
FSS: SAINT LOUIS FLIGHT SERVICE STATION
NOTAMs facility: STL (NOTAM-D service available)
Attendance: UNATTND
Wind indicator: lighted
Segmented circle: no
Lights: MIRL RY 18/36 PRESET ON LOW INTST; TO INCR INTST ACTVT - CTAF.
Beacon: white-green (lighted land airport)
Operates sunset to sunrise.

Airport Communications

CTAF/UNICOM: 122.8
WX AWOS-3 at MWA (16 nm S): 119.675 (618-942-8877)
WX AWOS-3PT at MVN (19 nm N): 118.2 (618-242-7933)
  • APCH/DEP SVC PRVDD BY KANSAS CITY ARTCC ON FREQS 127.475/346.275 (MARION RCAG).

Nearby radio navigation aids

VOR radial/distance  VOR name  Freq  Var
MWAr009/15.7MARION VOR/DME110.4004E
ENLr153/26.9CENTRALIA VORTAC115.0004E

 
NDB name  Hdg/Dist  Freq  Var  ID
JONNY009/10.338201EMW -- .--
WAYNE COUNTY229/33.325701WFWC ..-. .-- -.-.
SALEM179/38.240001WSLO ... .-.. ---

Airport Services

Fuel available: 100LL
Parking: tiedowns

Runway Information

Runway 18/36

Dimensions: 4002 x 75 ft. / 1220 x 23 m
Surface: asphalt, in good condition
Weight bearing capacity: 
Single wheel: 4.0
Runway edge lights: medium intensity
Runway edge markings: RWY MARKING FADED.
RUNWAY 18  RUNWAY 36
Latitude: 38-00.840073N38-00.180805N
Longitude: 088-56.071950W088-56.061308W
Elevation: 439.1 ft.444.1 ft.
Traffic pattern: leftleft
Runway heading: 181 magnetic, 179 true001 magnetic, 359 true
Markings: nonprecision, in poor conditionnonprecision, in poor condition
Visual slope indicator: 4-light PAPI on left (3.33 degrees glide path)
Runway end identifier lights: yesyes
Touchdown point: yes, no lightsyes, no lights
Obstructions: none68 ft. tree, 1226 ft. from runway, 135 ft. right of centerline, 15:1 slope to clear

Airport Ownership and Management from official FAA records

Ownership: Publicly-owned
Owner: CITY OF BENTON
P.O. BOX 640, 1403 SOUTH MAIN ST
BENTON, IL 62812
Phone 618-439-6131
Manager: CHARLES CASEY
P.O. BOX 640
BENTON, IL 62812
Phone (618) 927-0442
EMAIL CHRLSCASEY@YAHOO.COM (ALL LOWER CASE)

Airport Operational Statistics

Aircraft based on the field: 6
Single engine airplanes: 4
Multi engine airplanes: 2
    
Aircraft operations: avg 22/day *
49% local general aviation
45% transient general aviation
5% air taxi
<1% military
* for 12-month period ending 31 July 2019

Additional Remarks

FOR CD CTC KANSAS CITY ARTCC AT 913-254-8508.

Instrument Procedures

NOTE: All procedures below are presented as PDF files. If you need a reader for these files, you should download the free Adobe Reader.

NOT FOR NAVIGATION. Please procure official charts for flight.
FAA instrument procedures published for use from 07 November 2019 at 0901Z to 05 December 2019 at 0900Z.

 
IAPs - Instrument Approach Procedures
RNAV (GPS) RWY 18 **CHANGED**   download (202KB)
NOTE: Special Take-Off Minimums/Departure Procedures apply   download (201KB)

Other nearby airports with instrument procedures:

KMWA - Veterans Airport of Southern Illinois (16 nm S)
KMVN - Mount Vernon Airport (19 nm N)
KPJY - Pinckneyville-Du Quoin Airport (20 nm W)
KMDH - Southern Illinois Airport (20 nm SW)
KHSB - Harrisburg-Raleigh Airport (22 nm SE)
 
Loc | Ops | Rwys | IFR | FBO | Links
Com | Nav | Svcs | Stats | Notes
Area around H96 (Benton Municipal Airport)
 
Road maps at: MapQuest Bing Google
 
Aerial photo
WARNING: Photo may not be current or correct
Aerial photo of H96 (Benton Municipal Airport)
Photo by LD Pahnke
Photo taken 08-May-2011
looking southeast from 3500'.

Do you have a better or more recent aerial photo of Benton Municipal Airport that you would like to share? If so, please send us your photo.

 
Sectional chart

 
Airport distance calculator
Flying to Benton Municipal Airport? Find the distance to fly.

From to H96

Sunrise and sunset
Times for 19-Nov-2019
 Local
(UTC-6)
 Zulu
(UTC)
Morning civil twilight06:1312:13
Sunrise06:4212:42
Sunset16:4122:41
Evening civil twilight17:0923:09

Current date and time
Zulu (UTC)  20-Nov-2019 00:05:04
Local (UTC-6)  19-Nov-2019 18:05:04
 
METAR
KMWA 
16nm S 
192345Z 32008KT 10SM SKC 06/03 A2997
KMVN 
19nm N 
192356Z AUTO 00000KT 10SM CLR 05/03 A2997 RMK AO2 SLP157 T00500028 10117 20050 53026
KMDH 
20nm SW 
192352Z 00000KT 10SM CLR 08/03 A2997 RMK AO2 SLP148 T00780028 10139 20078 51022
KHSB 
22nm SE 
192355Z AUTO 00000KT 10SM CLR 06/02 A2997 RMK AO2 T00640019 10129 20064
KENL 
31nm N 
192355Z AUTO 36004KT 10SM CLR 06/03 A2996 RMK AO2 T00550025 10125 20055
TAF
KMVN 
19nm N 
192021Z 1920/2018 32010G15KT P6SM SCT025 BKN035 TEMPO 1920/1922 BKN025 FM192200 32008KT P6SM SCT035 FM200100 00000KT P6SM SKC FM201500 15005KT P6SM SCT250
NOTAMs
Click for the latest NOTAMs
NOTAMs are issued by the DoD/FAA and will open in a separate window not controlled by AirNav.

 

 
 

FBO, Fuel Providers, and Aircraft Ground Support

  
 Business Name 
 
 Contact 
 
 Services / Description 
 
Fuel Prices
 
Comments
  
Benton Municipal Airport 618-435-3526
no information available

If you are affiliated with Benton Municipal Airport and would like to show here your services, contact info, web link, logo, and more, click here
100LL
PS $4.40 
 Updated 29-May-2016
 
   1 read write
PS=Pump service
Update Fuel Prices
 

Would you like to see your business listed on this page?

 If your business provides an interesting product or service to pilots, flight crews, aircraft, or users of the Benton Municipal Airport, you should consider listing it here.  To start the listing process, click on the button below
 
Add a business
 

Other Pages about Benton Municipal Airport

Update a link
 
Copyright © AirNav, LLC. All rights reserved. Privacy Policy  Contact